Skip Page Navigation
NASA JPL Caltech
NASA Logo - Jet Propulsion Laboratory + View the NASA Portal
+ Center for Near-Earth Object Studies
JPL Home Earth Solar System Stars & Galaxies Technology
JPL Solar System Dynamics
BODIES ORBITS EPHEMERIDES TOOLS PHYSICAL DATA DISCOVERY FAQ SITE MAP
IMPORTANT: The SSD Announcement email list is now available. Major changes are coming in the near future, including possible hostname and/or URL changes. To be notified of such changes, subscribe to this email list.

Please visit this page for more details.


JPL Small-Body Database Browser
Search: [ help ]  
376296 (2011 FA125)
Classification: Main-belt Asteroid          SPK-ID: 2376296
Ephemeris | Orbit Diagram | Orbital Elements | Mission Design | Physical Parameters | Discovery Circumstances | Close-Approach Data ]

[ hide orbit diagram ]

For accurate long-term ephemerides, please instead use our Horizons system.This orbit viewer was implemented using two-body methods, and hence should not be used for determining accurate long-term trajectories (over several years or decades) or planetary encounter circumstances.


[ revert to old Java-based viewer ]

Orbital Elements at Epoch 2459000.5 (2020-May-31.0) TDB
Reference: JPL 14 (heliocentric ecliptic J2000)
 Element Value Uncertainty (1-sigma)   Units 
e .09709046279523698 5.3497e-08  
a 3.097148412711153 4.5201e-08 au
q 2.796444839975493 1.5546e-07 au
i 10.68204167003805 7.241e-06 deg
node 339.9363887819292 2.9284e-05 deg
peri 304.7862239218302 4.9106e-05 deg
M 163.3409035687303 4.1675e-05 deg
tp 2458097.196058796825
(2017-Dec-09.69605880)
0.00022781 TDB
period 1990.863352217898
5.45
4.3583e-05
1.193e-07
d
yr
n .1808260720651401 3.9586e-09 deg/d
Q 3.397851985446812 4.959e-08 au
  Orbit Determination Parameters
   # obs. used (total)      202  
   data-arc span      6320 days (17.30 yr)  
   first obs. used      2002-10-04  
   last obs. used      2020-01-23  
   planetary ephem.      DE431  
   SB-pert. ephem.      SB431-N16  
   condition code      0  
   norm. resid. RMS      .55134  
   source      ORB  
   producer      Otto Matic  
   solution date      2020-Feb-26 02:44:29  

Additional Information
 Earth MOID = 1.79731 au 
 Jupiter MOID = 1.90589 au 
 T_jup = 3.189 
[ hide covariance matrix ]
Orbital Elements at Epoch 2457352.5 (2015-Nov-26.0) TDB
Reference: JPL 14 (heliocentric ecliptic J2000)
 Element Value Uncertainty (1-sigma)   Units 
e .09929905815386507 5.3688e-08  
q 2.790365793811285 1.5654e-07 au
tp 2458091.216876441357
(2017-Dec-03.71687644)
0.0002229 TDB
node 340.0102572308941 2.9205e-05 deg
peri 303.6819958037419 4.8361e-05 deg
i 10.69985391517671 7.2474e-06 deg
  Orbit Determination Parameters
   # obs. used (total)      202  
   data-arc span      6320 days (17.30 yr)  
   first obs. used      2002-10-04  
   last obs. used      2020-01-23  
   planetary ephem.      DE431  
   SB-pert. ephem.      SB431-N16  
   condition code      0  
   norm. resid. RMS      .55134  
   source      ORB  
   producer      Otto Matic  
   solution date      2020-Feb-26 02:44:29  

Additional Information
 Jupiter MOID = 1.90589 au 
 T_jup = 3.189 
Orbit Covariance (6×6)
  e q tp node peri i
e 2.882391993092604E-15 -8.155568192872379E-15 2.827283641991233E-12 4.572590733456435E-15 4.578604841478415E-13 4.980135051371071E-15
q -8.155568192872379E-15 2.450590152074557E-14 -7.678091511798174E-12 -1.431015372741238E-14 -1.341031836832426E-12 -1.174460944402206E-14
tp 2.827283641991233E-12 -7.678091511798174E-12 4.96847261474212E-8 -3.225293392850803E-11 8.602994401049384E-9 4.376637264055776E-12
node 4.572590733456435E-15 -1.431015372741238E-14 -3.225293392850803E-11 8.529237554843457E-10 -8.432547825383252E-10 2.231946491694229E-11
peri 4.578604841478415E-13 -1.341031836832426E-12 8.602994401049384E-9 -8.432547825383252E-10 2.338795081060959E-9 -2.145195045640606E-11
i 4.980135051371071E-15 -1.174460944402206E-14 4.376637264055776E-12 2.231946491694229E-11 -2.145195045640606E-11 5.252478792803073E-11

Ephemeris | Orbit Diagram | Orbital Elements | Mission Design | Physical Parameters | Discovery Circumstances | Close-Approach Data ]

Physical Parameter Table
Parameter Symbol Value Units Sigma Reference Notes
absolute magnitude H 15.6   n/a MPO455713  

376296 (2011 FA125)          Discovered 2005-Feb-01 by Spacewatch at Kitt Peak
Reference: Last Updated: 2013-10-21

[ show close-approach data ]
Alternate Designations
 2011 FA125 = 2005 CV30 
Ephemeris | Orbit Diagram | Orbital Elements | Mission Design | Physical Parameters | Discovery Circumstances | Close-Approach Data ]
ABOUT SSD CREDITS/AWARDS PRIVACY/COPYRIGHT GLOSSARY LINKS
FirstGov 2020-Jun-04 05:50 UT
(server date/time)  
NASA Home Page
Site Manager:   Ryan S. Park
Webmaster  Alan B. Chamberlin